Showing default

POLYTECH UNIVERSE-4, 61747

Orbit data source: Space-Track

POLYTECH UNIVERSE-4, 61747 is a payload satellite owned by Polytech (CIS) in SSO that was launched on Mon, 04 Nov 2024 UTC via a SOYUZ-2-1B launch vehicle from the Vostochny Cosmodrome (VOSTO). Payload-class satellites include a variety of spacecraft equipped with specific instruments for various scientific and technological missions. These include communications satellites like Starlink; space stations such as the ISS; scientific satellites like the Hubble; Earth observation satellites from companies like Planet Labs, Umbra, and HawkEye 360; GPS; miniature CubeSats for education and research; and military/defense satellites.

Loading next visibility...
Identifier
61747, 2024-199N
Orbit
SSO
Country
Flag of CISCIS
Related business
Manufacturer
STTs
Mission
Operational Amateur Science
Bus & Motor
CUBESAT 3U, Unknown motor
Mass
5.07 kg wet, 5.07 kg dry
Launch date (UTC)
2024-11-04 (2 years ago)
Launch vehicle
SOYUZ-2-1B
Launch site
Vostochny Cosmodrome (VOSTO)
Object type
Payload
Rocket body
Debris
Shape & HBR
Box, 0.2 m
Radar Cross Section
0.035 m², Medium (>0.1 m² and < 1m²)

Expand to show TLE details & history
Last TLE update: 6 hours ago

TLE from 6 hours ago
0 POLYTECH UNIVERSE-4
1 61747U 24199N   26264.54680540  .00015060  00000-0  28185-3 0  9991
2 61747  97.2826 138.3878 0006219 292.8637  67.1957 15.48779946152265
Epoch: 2026-09-21T13:07Z
TLE epoch observation values (Epoch: 2026-09-21T13:07:23.986Z)
Latitude
-0.00004°
Longitude
-58.88721°
Altitude
421.79 km
Speed
7.659 km/s
True Right ascension
09h 13m 33s
True Declination
0° 00' 00"
Sunlit
Object was in daylight at epoch
Visualization orbit readout
Latitude
Unknown
Longitude
Unknown
Altitude
Unknown
Speed
Unknown
Apparent Right ascension
Unknown
Apparent Declination
Unknown
Sunlit
N/A
Visualization observer readout
Local Sidereal Time
12:00:32
Azimuth
Unknown
Elevation
Unknown
Doppler factor
Unknown
Orbital elements
Apogee altitude
421.442 km
Perigee altitude
412.99 km
Semi-major axis
6,795.353 km
Eccentricity
0.00062
Inclination
97.2826°
RAAN
138.3878°
Arg. of periapsis
292.8637°
True anomaly
67.26141°
Mean anomaly
67.1957°
Eccentric anomaly
67.22855°
Mean motion
3.87458 °/min
Orbital period
92.91 mins
BSTAR
0.00028185
Loading maneuver chart data...
Computing Atmospheric mass density...
Loading historical data...
Loading historical data...
Loading historical data...
Loading historical data...
Loading historical data...
Loading historical data...
Loading historical data...

Documentation

Showing up to 5 results
|